MiSS Emily — WDF2689 — position and weather

sailwx.info

Track history (hours):
 
Tides and Currents Weather Stations Pressure Air Temp Water Temp Dewpoint Dewpoint Depression Visibility Wind Speed Wind Dir Waves Ship Positions

MiSS Emily

Owner: Marquette Transportation Company Offshore LLC, Jefferson, LA. More information available from US FCC via Universal Licensing System and Coast Guard Vessel Documentation Center.

Last reported at 2018-Apr-27 01:00 UTC. Time now 2018-Apr-27 01:12 UTC.
Position N 26°55' W 080°02'.

Type: Tug. MMSI: 367430760.

Date/timePositionNaut miles runAvg speedWind from/ knotsBaromVisibWave heightAir tempDewpointWater temp
2018-Apr-27 01:00N 26°55' W 080°02'3 6.1
2018-Apr-27 00:30N 26°58' W 080°03'4 5.9
2018-Apr-26 23:53N 27°02' W 080°04'  
2018-Apr-22 12:42N 27°01' W 080°01'1 5.4
2018-Apr-22 12:30N 26°60' W 080°01'3 5.2
2018-Apr-22 12:00N 26°57' W 080°00'3 5.0
2018-Apr-22 11:30N 26°55' W 079°59'3 5.5
2018-Apr-22 11:00N 26°52' W 079°59'26 6.2
2018-Apr-22 06:46N 26°26' W 080°01'2 6.3
2018-Apr-22 06:25N 26°23' W 080°01'3 6.4
2018-Apr-22 05:59N 26°21' W 080°02'3 6.4
2018-Apr-22 05:30N 26°18' W 080°02'3 6.5
2018-Apr-22 04:59N 26°14' W 080°03'3 6.6
2018-Apr-22 04:30N 26°11' W 080°03'3 6.6
2018-Apr-22 04:00N 26°08' W 080°04'3 6.6
2018-Apr-22 03:30N 26°05' W 080°04'3 6.5
2018-Apr-22 03:00N 26°01' W 080°05'3 6.4
2018-Apr-22 02:30N 25°58' W 080°05'3 5.9
2018-Apr-22 02:00N 25°55' W 080°06'3 5.6
2018-Apr-22 01:30N 25°53' W 080°05'3 6.0
2018-Apr-22 01:01N 25°50' W 080°05'3 6.4
2018-Apr-22 00:31N 25°46' W 080°05'3 6.6
2018-Apr-22 00:00N 25°43' W 080°04'3 6.7
2018-Apr-21 23:31N 25°40' W 080°04'4 7.1
2018-Apr-21 23:01N 25°36' W 080°04'183 4.1
2018-Apr-20 02:03N 27°43' W 082°32'210.2
2018-Apr-20 01:53N 27°45' W 082°32'3 8.6
2018-Apr-20 01:30N 27°48' W 082°30'4 8.4
2018-Apr-20 01:00N 27°51' W 082°27'4 7.5
2018-Apr-20 00:30N 27°54' W 082°26'1 1.8
2018-Apr-20 00:00N 27°54' W 082°25'0 0.0
2018-Apr-19 23:30N 27°54' W 082°25'0 0.0
2018-Apr-19 23:00N 27°54' W 082°25'0 0.0
2018-Apr-19 22:30N 27°54' W 082°25'0 0.0
2018-Apr-19 22:00N 27°54' W 082°25'0 0.0
2018-Apr-19 21:30N 27°54' W 082°25'0 0.0
2018-Apr-19 21:00N 27°54' W 082°25'0 0.1
2018-Apr-19 20:30N 27°54' W 082°25'0 0.0
2018-Apr-19 19:59N 27°54' W 082°25'0 0.0
2018-Apr-19 19:30N 27°54' W 082°25'0 0.4
2018-Apr-19 19:00N 27°54' W 082°25'2 4.8
2018-Apr-19 18:30N 27°52' W 082°27'4 7.9
2018-Apr-19 18:00N 27°48' W 082°28'6 7.1
2018-Apr-19 17:11N 27°48' W 082°34'1 5.7
2018-Apr-19 17:00N 27°49' W 082°34'2 4.7
2018-Apr-19 16:30N 27°51' W 082°33'2 4.2
2018-Apr-19 15:59N 27°53' W 082°32'0 0.0
2018-Apr-19 15:14N 27°53' W 082°32'0 0.0
2018-Apr-19 13:23N 27°53' W 082°32'0 0.0
2018-Apr-19 12:55N 27°53' W 082°32'0 0.0
2018-Apr-19 12:30N 27°53' W 082°32'0 0.0
2018-Apr-19 11:58N 27°53' W 082°32'0 0.0
2018-Apr-19 11:21N 27°53' W 082°32'0 0.0
2018-Apr-19 10:59N 27°53' W 082°32'0 0.0
2018-Apr-19 10:27N 27°53' W 082°32'0 0.0
2018-Apr-19 10:00N 27°53' W 082°32'0 0.0
2018-Apr-19 09:18N 27°53' W 082°32'0 0.0
2018-Apr-19 02:34N 27°53' W 082°32'0 0.0
2018-Apr-19 02:15N 27°53' W 082°32'2 7.0
2018-Apr-19 02:00N 27°52' W 082°33'  
Track history (hours):
 
Tides and Currents Weather Stations Pressure Air Temp Water Temp Dewpoint Dewpoint Depression Visibility Wind Speed Wind Dir Waves Ship Positions

MiSS Emily

Owner: Marquette Transportation Company Offshore LLC, Jefferson, LA. More information available from US FCC via Universal Licensing System and Coast Guard Vessel Documentation Center.

Last reported at 2018-Apr-27 01:00 UTC. Time now 2018-Apr-27 01:12 UTC.
Position N 26°55' W 080°02'.

Type: Tug. MMSI: 367430760.

Date/timePositionNaut miles runAvg speedWind from/ knotsBaromVisibWave heightAir tempDewpointWater temp
2018-Apr-27 01:00N 26°55' W 080°02'3 6.1
2018-Apr-27 00:30N 26°58' W 080°03'4 5.9
2018-Apr-26 23:53N 27°02' W 080°04'  
2018-Apr-22 12:42N 27°01' W 080°01'1 5.4
2018-Apr-22 12:30N 26°60' W 080°01'3 5.2
2018-Apr-22 12:00N 26°57' W 080°00'3 5.0
2018-Apr-22 11:30N 26°55' W 079°59'3 5.5
2018-Apr-22 11:00N 26°52' W 079°59'26 6.2
2018-Apr-22 06:46N 26°26' W 080°01'2 6.3
2018-Apr-22 06:25N 26°23' W 080°01'3 6.4
2018-Apr-22 05:59N 26°21' W 080°02'3 6.4
2018-Apr-22 05:30N 26°18' W 080°02'3 6.5
2018-Apr-22 04:59N 26°14' W 080°03'3 6.6
2018-Apr-22 04:30N 26°11' W 080°03'3 6.6
2018-Apr-22 04:00N 26°08' W 080°04'3 6.6
2018-Apr-22 03:30N 26°05' W 080°04'3 6.5
2018-Apr-22 03:00N 26°01' W 080°05'3 6.4
2018-Apr-22 02:30N 25°58' W 080°05'3 5.9
2018-Apr-22 02:00N 25°55' W 080°06'3 5.6
2018-Apr-22 01:30N 25°53' W 080°05'3 6.0
2018-Apr-22 01:01N 25°50' W 080°05'3 6.4
2018-Apr-22 00:31N 25°46' W 080°05'3 6.6
2018-Apr-22 00:00N 25°43' W 080°04'3 6.7
2018-Apr-21 23:31N 25°40' W 080°04'4 7.1
2018-Apr-21 23:01N 25°36' W 080°04'183 4.1
2018-Apr-20 02:03N 27°43' W 082°32'210.2
2018-Apr-20 01:53N 27°45' W 082°32'3 8.6
2018-Apr-20 01:30N 27°48' W 082°30'4 8.4
2018-Apr-20 01:00N 27°51' W 082°27'4 7.5
2018-Apr-20 00:30N 27°54' W 082°26'1 1.8
2018-Apr-20 00:00N 27°54' W 082°25'0 0.0
2018-Apr-19 23:30N 27°54' W 082°25'0 0.0
2018-Apr-19 23:00N 27°54' W 082°25'0 0.0
2018-Apr-19 22:30N 27°54' W 082°25'0 0.0
2018-Apr-19 22:00N 27°54' W 082°25'0 0.0
2018-Apr-19 21:30N 27°54' W 082°25'0 0.0
2018-Apr-19 21:00N 27°54' W 082°25'0 0.1
2018-Apr-19 20:30N 27°54' W 082°25'0 0.0
2018-Apr-19 19:59N 27°54' W 082°25'0 0.0
2018-Apr-19 19:30N 27°54' W 082°25'0 0.4
2018-Apr-19 19:00N 27°54' W 082°25'2 4.8
2018-Apr-19 18:30N 27°52' W 082°27'4 7.9
2018-Apr-19 18:00N 27°48' W 082°28'6 7.1
2018-Apr-19 17:11N 27°48' W 082°34'1 5.7
2018-Apr-19 17:00N 27°49' W 082°34'2 4.7
2018-Apr-19 16:30N 27°51' W 082°33'2 4.2
2018-Apr-19 15:59N 27°53' W 082°32'0 0.0
2018-Apr-19 15:14N 27°53' W 082°32'0 0.0
2018-Apr-19 13:23N 27°53' W 082°32'0 0.0
2018-Apr-19 12:55N 27°53' W 082°32'0 0.0
2018-Apr-19 12:30N 27°53' W 082°32'0 0.0
2018-Apr-19 11:58N 27°53' W 082°32'0 0.0
2018-Apr-19 11:21N 27°53' W 082°32'0 0.0
2018-Apr-19 10:59N 27°53' W 082°32'0 0.0
2018-Apr-19 10:27N 27°53' W 082°32'0 0.0
2018-Apr-19 10:00N 27°53' W 082°32'0 0.0
2018-Apr-19 09:18N 27°53' W 082°32'0 0.0
2018-Apr-19 02:34N 27°53' W 082°32'0 0.0
2018-Apr-19 02:15N 27°53' W 082°32'2 7.0
2018-Apr-19 02:00N 27°52' W 082°33'  

Dump ship's entire track history